Weather History for Prerov, Czech Republic

Change the Weather History Date:

Wednesday, September 12, 2012

  Actual Average Record
Temperature  
Mean Temperature 63 °F -  
Max Temperature 73 °F - - ()
Min Temperature 53 °F - - ()
Degree Days  
Heating Degree Days 2    
Growing Degree Days 13 (Base 50)    
Moisture  
Dew Point 55 °F    
Average Humidity 79    
Maximum Humidity 94    
Minimum Humidity 43    
Precipitation  
Precipitation 0.00 in - - ()
Sea Level Pressure  
Sea Level Pressure 29.82 in    
Wind  
Wind Speed 6 mph ()    
Max Wind Speed 16 mph    
Max Gust Speed -    
Visibility 5.5 miles    
Events Rain    
T = Trace of Precipitation, MM = Missing Value Source: Averaged Metar Reports

Daily Weather History Graph

Daily Weather History Graph

Search for Another Location

Airport:

Trip Planner

Search our weather history database for the weather conditions in past years. The results will help you decide how hot, cold, wet, or windy it might be!

Date:

Astronomy

Sep. 12, 2012 Rise Set
Actual Time 6:22 AM CEST 7:09 PM CEST
Civil Twilight 5:50 AM CEST 7:41 PM CEST
Nautical Twilight 5:11 AM CEST 8:20 PM CEST
Astronomical Twilight 4:30 AM CEST 9:00 PM CEST
Moon 2:03 AM CEST (9/12) 5:00 PM CEST (9/12)
Length of Visible Light 13h 51m
Length of Day
12h 46m
Waning Crescent, 15% of the Moon is Illuminated
Sep 12
Waning Crescent
Sep 16
New
Sep 22
First Quarter
Sep 30
Full
Oct 8
Last Quarter

Hourly Weather History & Observations

Time (CEST) Temp. Dew Point Humidity Pressure Visibility Wind Dir Wind Speed Gust Speed Precip Events Conditions
12:00 AM 69.8 °F 46.4 °F 43% 29.86 in - South 8.1 mph - N/A   Clear
2:00 AM 68.0 °F 48.2 °F 49% 29.86 in - SW 4.6 mph - N/A   Clear
3:00 AM 64.4 °F 48.2 °F 56% 29.86 in - South 3.5 mph - N/A   Clear
4:00 AM 64.4 °F 51.8 °F 64% 29.89 in 6.2 mi WSW 6.9 mph - N/A Rain Light Rain
5:00 AM 60.8 °F 53.6 °F 77% 29.86 in - Variable 1.2 mph - N/A   Clear
7:00 AM 59.0 °F 55.4 °F 88% 29.86 in - NNW 3.5 mph - N/A   Clear
8:00 AM 60.8 °F 57.2 °F 88% 29.86 in - South 3.5 mph - N/A   Clear
9:00 AM 62.6 °F 57.2 °F 82% 29.86 in - South 5.8 mph - N/A   Clear
10:00 AM 66.2 °F 59.0 °F 78% 29.86 in - South 4.6 mph - N/A   Clear
11:00 AM 68.0 °F 59.0 °F 73% 29.86 in - South 3.5 mph - N/A   Clear
12:00 PM 69.8 °F 57.2 °F 64% 29.83 in - WSW 4.6 mph - N/A   Clear
1:00 PM 71.6 °F 57.2 °F 60% 29.80 in 6.2 mi WSW 3.5 mph - N/A   Mostly Cloudy
2:00 PM 71.6 °F 57.2 °F 60% 29.80 in 6.2 mi WSW 6.9 mph - N/A   Mostly Cloudy
3:00 PM 73.4 °F 55.4 °F 53% 29.77 in 6.2 mi WSW 8.1 mph - N/A   Overcast
4:00 PM 71.6 °F 55.4 °F 57% 29.77 in 6.2 mi West 5.8 mph - N/A   Overcast
5:00 PM 68.0 °F 57.2 °F 68% 29.77 in - West 12.7 mph - N/A   Clear
5:42 PM 62.6 °F 57.2 °F 82% 29.77 in 2.5 mi NNW 16.1 mph - N/A Rain Light Rain Showers
6:00 PM 60.8 °F 57.2 °F 88% 29.77 in 2.5 mi NNW 13.8 mph - N/A Rain Light Rain Showers
6:10 PM 59.0 °F 57.2 °F 94% 29.77 in 6.2 mi NNW 11.5 mph - N/A   Mostly Cloudy
7:00 PM 59.0 °F 57.2 °F 94% 29.77 in 6.2 mi North 5.8 mph - N/A   Overcast
7:05 PM 59.0 °F 57.2 °F 94% 29.80 in 6.2 mi North 3.5 mph - N/A   Overcast
7:22 PM 57.2 °F 55.4 °F 94% 29.80 in - NNW 10.4 mph - N/A Rain Rain
7:35 PM 57.2 °F 55.4 °F 94% 29.80 in 6.2 mi ENE 4.6 mph - N/A Rain Light Rain
7:55 PM 57.2 °F 55.4 °F 94% 29.80 in 6.2 mi ENE 8.1 mph - N/A Rain Light Rain
8:00 PM 57.2 °F 55.4 °F 94% 29.80 in 6.2 mi ENE 8.1 mph - N/A Rain Light Rain
8:23 PM 55.4 °F 53.6 °F 94% 29.83 in - NNE 6.9 mph - N/A Rain Rain
8:46 PM 55.4 °F 53.6 °F 94% 29.83 in 3.1 mi North 5.8 mph - N/A Rain Rain
9:00 PM 53.6 °F 51.8 °F 94% 29.83 in 6.2 mi North 4.6 mph - N/A Rain Light Rain
9:11 PM 53.6 °F 51.8 °F 94% 29.83 in 6.2 mi North 3.5 mph - N/A Rain Light Rain
10:00 PM 53.6 °F 51.8 °F 94% 29.83 in 4.3 mi North 4.6 mph - N/A Rain Light Rain